Regional Weather Roundup
Issued by NWS

Home | Current Version | Previous Version | Graphics & Text | Print | Product List | Glossary On
Versions: 1 2 3 4 5 6 7 8 9 10 11 12 13 14 15 16 17 18 19 20 21 22 23 24 25 26 27 28 29 30 31 32 33 34 35 36 37 38 39 40 41 42 43 44 45 46 47 48 49 50
000
ASUS45 KBOU 302207
RWRCO

WEATHER ROUNDUP FOR COLORADO
NATIONAL WEATHER SERVICE DENVER/BOULDER CO
400 PM MDT WED JUL 30 2014

NOTE: "FAIR" INDICATES FEW OR NO CLOUDS BELOW 12000 FEET WITH NO
SIGNIFICANT WEATHER AND/OR OBSTRUCTIONS TO VISIBILITY.

COZ001>005-013-030-031-302300-
...NORTHWEST COLORADO...

CITY           SKY/WX    TMP DP  RH WIND       PRES   REMARKS
CRAIG          CLOUDY    60  54  80 NE13      30.27F
HAYDEN         PTSUNNY   66  52  59 E7        30.29F
MEEKER         PTSUNNY   75  52  44 NW6       30.26F
MOUNT WERNER   NOT AVBL
STEAMBOAT SPGS PTSUNNY   65  55  69 NW3       30.31S
WALDEN         CLOUDY    54  46  76 S3        30.43S
$$

COZ006>008-011-302300-
...WEST CENTRAL VALLEYS...

CITY           SKY/WX    TMP DP  RH WIND       PRES   REMARKS
GRAND JUNCTION PTSUNNY   81  50  33 W9        30.14F
MONTROSE       MOSUNNY   79  53  40 N8        30.21F
EAGLE          PTSUNNY   68  59  73 VRB7      30.28F
RIFLE          CLOUDY    75  56  51 N7        30.20S
DELTA          MOSUNNY   86  49  28 W13G18    30.16F
NUCLA          MOSUNNY   79  50  36 N8        30.26F
$$

COZ017>023-064>068-302300-
...SOUTHWEST COLORADO...

CITY           SKY/WX    TMP DP  RH WIND       PRES   REMARKS
DURANGO        MOSUNNY   84  45  25 W13G28    30.22F
CORTEZ         SUNNY     88  46  23 NW9G18    30.19F
PAGOSA SPRINGS PTSUNNY   78  41  26 SW14G21   30.30F
TELLURIDE      MOSUNNY   70  48  46 W13G20    30.44S
WOLF CREEK PAS NOT AVBL
$$

COZ009-010-012-014-032>034-037-058>063-302300-
...CENTRAL COLORADO...

CITY           SKY/WX    TMP DP  RH WIND       PRES   REMARKS
ASPEN          PTSUNNY   69  48  47 NW6       30.33F
BUENA VISTA    PTSUNNY   66  49  54 SE10      30.38S
COPPER MTN     CLOUDY    54  46  76 W8G16     30.64S
BERTHOUD PASS  LGT RAIN  34  34 100 E10       30.70R WCI  26
COTTONWOOD PAS CLOUDY    61  50  67 SE9       30.50S
GUNNISON       MOSUNNY   73  48  40 N9        30.32F
KREMMLING      CLOUDY    57  52  82 NW6       30.38R
LEADVILLE      HVY RAIN  53  49  86 S15       30.48R FOG
MONARCH PASS   FOG       48  46  93 NE22      30.71F VSB<1/4
SALIDA         PTSUNNY   67  54  62 SE16G24   30.42F
SUNLIGHT       PTSUNNY   63  50  63 CALM      30.57F
WILKERSON PASS LGT RAIN  45  45 100 NE8       30.63S VSB 1/4
$$

COZ069>075-302300-
...SAN LUIS VALLEY/SANGRE DE CRISTO MOUNTAINS...

CITY           SKY/WX    TMP DP  RH WIND       PRES   REMARKS
ALAMOSA        MOSUNNY   73  47  39 SE5       30.29F
LA VETA PASS   DRZL/FOG  52  50  93 E12       30.53F VSB 1/4
SAGUACHE       MOSUNNY   73  48  40 S8        30.32F
$$

COZ035-036-038>040-302300-
...NORTHERN COLORADO FRONT RANGE...

CITY           SKY/WX    TMP DP  RH WIND       PRES   REMARKS
DENVER INTL AP CLOUDY    61  57  87 CALM      30.34S
DMNS CITY PARK   N/A     62  56  80 NE3       30.34S
AURORA         CLOUDY    59  59  99 E8        30.36S
FRONT RANGE AP RAIN      63  59  88 E9        30.36S
ERIE MUNI ARPT HVY RAIN  60  57  90 NE3       30.35R
BOULDER MUN AP RAIN      59  59 100 CALM      30.35
CENTENNIAL     LGT RAIN  59  56  89 E7        30.36R FOG
BROOMFIELD     NOT AVBL
FORT COLLINS   CLOUDY    61  57  88 E3        30.36S
LONGMONT       LGT RAIN  63  60  91 N6        30.36S
$$

COZ041-046-047-076>085-087-088-302300-
...PIKES PEAK/PALMER DIVIDE AND SOUTHERN FOOTHILLS...

CITY           SKY/WX    TMP DP  RH WIND       PRES   REMARKS
COLO. SPRINGS  LGT RAIN  59  56  89 VRB3      30.37S VSB 1
A. F. ACADEMY  LGT RAIN  57  57 100 SE5       30.38S FOG
ELLICOTT       CLOUDY    62  54  74 E15       30.35F
FALCON         RAIN      56  55  94 SE7       30.40F
FORT CARSON    LGT RAIN  59  59 100 SW5       30.35F
LIMON          LGT RAIN  61  53  75 E9        30.36R
MONUMENT HILL  DRIZZLE   54  52  94 E10       30.40S
TRINIDAD       CLOUDY    63  57  81 E13       30.32S
$$

COZ042>045-048>051-090-091-302300-
...NORTHEAST COLORADO...

CITY           SKY/WX    TMP DP  RH WIND       PRES   REMARKS
GREELEY ARPT   NOT AVBL
AKRON          LGT RAIN  61  55  81 SW8       30.32F
BURLINGTON     CLOUDY    67  52  58 SE6       30.29S
WRAY             N/A     75  56  51 SW8       30.26F
STERLING       CLOUDY    68  61  77 SW12      30.28F
HOLYOKE        PTSUNNY   77  55  47 SW5       30.25S
FORT MORGAN    CLOUDY    61  58  88 S6        30.34S
$$

COZ086-089-092>099-302300-
...SOUTHEAST COLORADO...

CITY           SKY/WX    TMP DP  RH WIND       PRES   REMARKS
PUEBLO         CLOUDY    64  61  90 SE13      30.29F
LA JUNTA       CLOUDY    70  60  70 E13       30.27S
LAMAR          CLOUDY    68  59  73 NE10      30.24F
SPRINGFIELD      N/A     63  59  87 NE15      30.26R
$$


USA.gov is the U.S. government's official web portal to all federal, state and local government web resources and services.